This is the latest recevied weather packets stored in our database for station/object DB0SMU-12. If no packets are shown the sender has not sent any weather packets the latest 10 day(s).
| Time | Temp. | Humidity | Pressure | Rain* | Wind** | Luminosity | Snow |
|---|---|---|---|---|---|---|---|
| 1778154442 | 13.89° C | 60% | 1015.7 hPa | 0 mm | - | - | - |
| 1778154261 | 13.89° C | 63% | 1015.8 hPa | 0 mm | - | - | - |
| 1778154081 | 13.33° C | 62% | 1015.8 hPa | 0 mm | - | - | - |
| 1778153900 | 13.33° C | 62% | 1015.7 hPa | 0 mm | - | - | - |
| 1778153719 | 13.89° C | 62% | 1015.8 hPa | 0 mm | - | - | - |
| 1778153538 | 13.89° C | 62% | 1015.7 hPa | 0 mm | - | - | - |
| 1778153176 | 13.89° C | 61% | 1015.8 hPa | 0 mm | - | - | - |
| 1778152995 | 13.89° C | 62% | 1015.8 hPa | 0 mm | - | - | - |
| 1778152814 | 13.33° C | 62% | 1015.8 hPa | 0 mm | - | - | - |
| 1778152633 | 13.33° C | 62% | 1015.7 hPa | 0 mm | - | - | - |
| 1778152453 | 13.33° C | 62% | 1015.8 hPa | 0 mm | - | - | - |
| 1778152272 | 13.33° C | 60% | 1015.7 hPa | 0 mm | - | - | - |
| 1778152091 | 13.89° C | 61% | 1015.8 hPa | 0 mm | - | - | - |
| 1778151910 | 13.33° C | 62% | 1015.8 hPa | 0 mm | - | - | - |
| 1778151729 | 13.33° C | 63% | 1015.9 hPa | 0 mm | - | - | - |
| 1778151548 | 13.33° C | 63% | 1015.9 hPa | 0 mm | - | - | - |
| 1778151367 | 13.33° C | 62% | 1015.8 hPa | 0 mm | - | - | - |
| 1778151186 | 13.33° C | 64% | 1015.9 hPa | 0 mm | - | - | - |
| 1778151006 | 13.33° C | 64% | 1015.8 hPa | 0 mm | - | - | - |
| 1778150825 | 13.33° C | 62% | 1016 hPa | 0 mm | - | - | - |
| 1778150644 | 12.78° C | 64% | 1015.9 hPa | 0 mm | - | - | - |
| 1778150463 | 12.78° C | 65% | 1016 hPa | 0 mm | - | - | - |
| 1778150282 | 12.78° C | 66% | 1016 hPa | 0 mm | - | - | - |
| 1778150101 | 12.78° C | 66% | 1015.9 hPa | 0 mm | - | - | - |
| 1778149920 | 12.78° C | 65% | 1016 hPa | 0 mm | - | - | - |
* Rain latest hour (hover to see other rain measurements)
** Current wind speed in m/s (hover to see current wind gust speed)